GW6191 Weather Reports


time (UTC)temp
F
wind
direction
speed
knots
gust
knots
rain 1hr
in
rain 24hr
in
rain mn
in
humidity
%
barometer
mb
20260506050514 60 348 6.1 10.4 0.00 0.00 0.00 78 1010.4
20260506045011 60 334 7.0 11.3 0.00 0.00 0.00 79 1010.4
20260506044528 60 338 4.3 9.6 0.00 0.00 0.00 78 1010.2
20260506044015 60 5 5.2 11.3 0.00 0.00 0.00 78 1010.2
20260506043513 61 36 3.5 11.3 0.00 0.00 0.00 78 1010.1
20260506043030 61 352 4.3 9.6 0.00 0.00 0.00 78 1010.1
20260506042505 61 15 5.2 10.4 0.00 0.00 0.00 78 1010.2
20260506042005 61 337 3.5 11.3 0.00 0.00 0.00 78 1010.2
20260506041517 61 337 4.3 11.3 0.00 0.00 0.00 77 1010.3
20260506041007 61 41 3.5 12.2 0.00 0.00 0.00 78 1010.3
20260506040505 61 345 6.1 12.2 0.00 0.00 0.00 77 1010.3
20260506040003 62 360 7.0 12.2 0.00 0.00 0.00 77 1010.2
20260506035503 62 349 6.1 11.3 0.00 0.00 0.00 77 1010.3
20260506035003 62 330 6.1 11.3 0.00 0.00 0.00 77 1010.1
20260506034504 62 30 4.3 13.0 0.00 0.00 0.00 77 1009.9
20260506034004 62 335 7.0 13.0 0.00 0.00 0.00 77 1009.9
20260506033504 63 360 3.5 9.6 0.00 0.00 0.00 77 1009.8
20260506033008 63 20 3.5 8.7 0.00 0.00 0.00 76 1009.7
20260506032503 63 323 4.3 11.3 0.00 0.00 0.00 77 1009.5
20260506032007 63 360 5.2 13.0 0.00 0.00 0.00 76 1009.3
20260506031523 63 38 6.1 13.0 0.00 0.00 0.00 75 1009.3
20260506031003 63 11 6.1 13.0 0.00 0.00 0.00 75 1009.4
20260506030504 64 348 6.1 13.0 0.00 0.00 0.00 75 1009.1
20260506030022 65 9 7.0 13.0 0.00 0.00 0.00 75 1009.2
20260506025508 65 346 4.3 10.4 0.00 0.00 0.00 75 1009.0
20260506025006 65 35 4.3 9.6 0.00 0.00 0.00 74 1009.0
20260506024505 65 18 3.5 9.6 0.00 0.00 0.00 74 1008.9
20260506024004 65 321 3.5 10.4 0.00 0.00 0.00 74 1008.7
20260506023505 65 31 4.3 10.4 0.00 0.00 0.00 74 1008.6
20260506023009 65 352 6.1 10.4 0.00 0.00 0.00 74 1008.6
20260506022505 66 352 3.5 10.4 0.00 0.00 0.00 73 1008.5
20260506022006 66 352 5.2 10.4 0.00 0.00 0.00 73 1008.5
20260506021507 66 27 7.0 10.4 0.00 0.00 0.00 73 1008.3
20260506021008 66 9 5.2 9.6 0.00 0.00 0.00 72 1008.2
20260506020510 66 339 4.3 9.6 0.00 0.00 0.00 72 1008.1
20260506020021 66 336 4.3 11.3 0.00 0.00 0.00 72 1007.8
20260506015504 66 352 6.1 11.3 0.00 0.00 0.00 72 1007.9
20260506015005 67 24 2.6 8.7 0.00 0.00 0.00 72 1007.9
20260506014525 67 337 3.5 8.7 0.00 0.00 0.00 72 1007.6
20260506014003 67 336 4.3 8.7 0.00 0.00 0.00 71 1007.4
20260506013503 67 352 4.3 8.7 0.00 0.00 0.00 70 1007.3
20260506013007 67 352 5.2 9.6 0.00 0.00 0.00 70 1007.4
20260506012506 67 31 3.5 9.6 0.00 0.00 0.00 71 1007.4
20260506012008 68 342 4.3 8.7 0.00 0.00 0.00 71 1007.2
20260506011511 68 32 3.5 7.0 0.00 0.00 0.00 71 1007.0
20260506011007 69 24 2.6 8.7 0.00 0.00 0.00 71 1007.1
20260506010502 69 346 3.5 8.7 0.00 0.00 0.00 70 1006.8
20260506010015 69 17 4.3 12.2 0.00 0.00 0.00 70 1006.7
20260506005506 70 325 5.2 13.0 0.00 0.00 0.00 70 1006.4
20260506005015 70 348 5.2 13.0 0.00 0.00 0.00 70 1006.3
20260506004513 70 46 6.1 11.3 0.00 0.00 0.00 70 1006.6
20260506004006 70 343 4.3 9.6 0.00 0.00 0.00 71 1006.6
20260506003513 71 360 4.3 13.0 0.00 0.00 0.00 70 1006.2
20260506003004 71 11 5.2 13.0 0.00 0.00 0.00 69 1005.8
20260506002502 71 344 8.7 13.0 0.00 0.00 0.00 69 1005.8
20260506002007 71 350 9.6 13.0 0.00 0.00 0.00 68 1005.9
20260506001506 72 350 7.0 13.0 0.00 0.00 0.00 68 1006.0
20260506001004 72 319 7.8 13.0 0.00 0.00 0.00 68 1006.0
20260506000507 73 328 6.1 12.2 0.00 0.00 0.00 68 1006.0
20260506000018 73 9 6.1 13.0 0.00 0.00 0.00 68 1005.9
20260505235514 73 337 7.8 13.0 0.00 0.00 0.00 66 1005.9
20260505235004 74 316 7.0 12.2 0.00 0.00 0.00 66 1005.9
20260505234519 74 360 6.1 11.3 0.00 0.00 0.00 66 1005.8
20260505234009 75 340 7.0 11.3 0.00 0.00 0.00 66 1005.9
20260505233506 75 343 5.2 12.2 0.00 0.00 0.00 65 1005.8
20260505233015 75 325 6.1 12.2 0.00 0.00 0.00 65 1005.7
20260505232506 75 331 7.0 11.3 0.00 0.00 0.00 64 1005.7
20260505232012 75 332 7.8 11.3 0.00 0.00 0.00 64 1005.5
20260505231507 76 326 7.8 12.2 0.00 0.00 0.00 65 1005.8
20260505231004 76 326 8.7 13.9 0.00 0.00 0.00 65 1005.7
20260505230509 76 331 9.6 13.9 0.00 0.00 0.00 63 1005.5
20260505230009 77 352 8.7 13.9 0.00 0.00 0.00 63 1005.4
20260505225507 77 319 9.6 13.9 0.00 0.00 0.00 63 1005.4
20260505225006 77 327 7.8 13.0 0.00 0.00 0.00 64 1005.5
20260505224531 78 317 7.8 11.3 0.00 0.00 0.00 63 1005.4
20260505224012 78 321 7.8 12.2 0.00 0.00 0.00 64 1005.1
20260505223514 78 308 6.1 12.2 0.00 0.00 0.00 63 1004.9
20260505223031 78 325 7.8 11.3 0.00 0.00 0.00 65 1004.9
20260505222502 78 316 8.7 13.9 0.00 0.00 0.00 63 1005.1
20260505222010 79 319 10.4 13.9 0.00 0.00 0.00 62 1005.1
20260505221522 80 316 8.7 13.9 0.00 0.00 0.00 61 1004.9
20260505221009 81 346 8.7 14.8 0.00 0.00 0.00 61 1004.8
20260505220505 82 327 9.6 14.8 0.00 0.00 0.00 60 1004.9
20260505220020 83 351 7.8 12.2 0.00 0.00 0.00 57 1004.8
20260505215510 84 331 8.7 11.3 0.00 0.00 0.00 56 1004.7
20260505215009 83 331 7.0 11.3 0.00 0.00 0.00 54 1004.6
20260505214519 84 314 8.7 12.2 0.00 0.00 0.00 52 1004.6
20260505214008 83 319 8.7 12.2 0.00 0.00 0.00 50 1004.8
20260505213507 85 320 8.7 12.2 0.00 0.00 0.00 49 1005.0
20260505213011 85 317 8.7 12.2 0.00 0.00 0.00 48 1004.9
20260505212507 85 9 7.8 11.3 0.00 0.00 0.00 50 1004.7
20260505212012 84 334 8.7 13.0 0.00 0.00 0.00 49 1004.6
20260505211525 85 339 8.7 13.0 0.00 0.00 0.00 49 1004.7
20260505211009 85 344 8.7 12.2 0.00 0.00 0.00 51 1004.8
20260505210510 86 329 8.7 13.0 0.00 0.00 0.00 53 1004.9
20260505210030 86 333 8.7 16.5 0.00 0.00 0.00 51 1005.0
20260505205507 87 327 10.4 16.5 0.00 0.00 0.00 47 1004.9
20260505205008 88 322 5.2 12.2 0.00 0.00 0.00 53 1004.9
20260505204520 88 254 7.0 11.3 0.00 0.00 0.00 53 1004.8
20260505204006 88 214 6.1 9.6 0.00 0.00 0.00 57 1004.9
20260505203507 88 218 5.2 9.6 0.00 0.00 0.00 54 1004.8
20260505203017 88 213 6.1 11.3 0.00 0.00 0.00 52 1004.9
20260505202508 88 235 7.0 11.3 0.00 0.00 0.00 55 1005.0
20260505202009 88 223 4.3 11.3 0.00 0.00 0.00 57 1004.9
20260505201518 87 207 5.2 11.3 0.00 0.00 0.00 57 1004.9
20260505201009 87 271 6.1 12.2 0.00 0.00 0.00 54 1005.1
20260505200512 87 212 6.1 15.6 0.00 0.00 0.00 54 1005.1
20260505200014 87 261 7.0 15.6 0.00 0.00 0.00 55 1005.1
20260505195511 87 254 8.7 13.0 0.00 0.00 0.00 56 1005.2
20260505195012 87 254 7.8 13.0 0.00 0.00 0.00 55 1005.2
20260505194512 87 236 6.1 13.9 0.00 0.00 0.00 58 1005.3
20260505194005 86 240 7.8 14.8 0.00 0.00 0.00 58 1005.3
20260505193507 86 257 7.0 14.8 0.00 0.00 0.00 58 1005.2
20260505193035 86 298 7.0 13.0 0.00 0.00 0.00 58 1005.2
20260505192507 86 241 7.8 13.0 0.00 0.00 0.00 59 1005.2
20260505192010 85 223 8.7 15.6 0.00 0.00 0.00 60 1005.3
20260505191522 85 230 8.7 15.6 0.00 0.00 0.00 61 1005.0
20260505191014 85 259 7.0 13.0 0.00 0.00 0.00 64 1005.1
20260505190507 85 234 7.0 13.9 0.00 0.00 0.00 63 1005.2
20260505190032 85 221 8.7 13.9 0.00 0.00 0.00 63 1005.1
20260505185513 85 224 5.2 11.3 0.00 0.00 0.00 66 1005.1
20260505185006 84 211 6.1 12.2 0.00 0.00 0.00 65 1005.1
20260505184525 84 216 7.8 12.2 0.00 0.00 0.00 64 1005.0
20260505184010 84 223 7.0 12.2 0.00 0.00 0.00 65 1005.2
20260505183511 83 199 5.2 13.9 0.00 0.00 0.00 67 1005.1
20260505183031 82 234 7.8 13.9 0.00 0.00 0.00 66 1005.3
20260505182505 82 238 7.8 12.2 0.00 0.00 0.00 66 1005.3
20260505182010 82 211 7.8 13.9 0.00 0.00 0.00 69 1005.4
20260505181517 82 210 7.8 13.9 0.00 0.00 0.00 68 1005.4
20260505181011 82 221 9.6 13.0 0.00 0.00 0.00 66 1005.4
20260505180511 82 202 8.7 18.2 0.00 0.00 0.00 67 1005.4
20260505180033 81 217 8.7 18.2 0.00 0.00 0.00 68 1005.4
20260505175507 82 192 9.6 14.8 0.00 0.00 0.00 67 1005.4
20260505175013 82 203 6.1 13.9 0.00 0.00 0.00 68 1005.5
20260505174531 82 199 7.8 18.2 0.00 0.00 0.00 69 1005.4
20260505174007 82 260 9.6 18.2 0.00 0.00 0.00 67 1005.3
20260505173509 82 201 8.7 16.5 0.00 0.00 0.00 68 1005.3
20260505173037 82 190 9.6 16.5 0.00 0.00 0.00 67 1005.2
20260505172511 81 227 8.7 16.5 0.00 0.00 0.00 69 1005.4
20260505172021 81 207 9.6 16.5 0.00 0.00 0.00 69 1005.2
20260505171527 81 198 10.4 14.8 0.00 0.00 0.00 69 1005.2
20260505171010 80 199 10.4 17.4 0.00 0.00 0.00 70 1005.3
20260505170514 80 220 9.6 18.2 0.00 0.00 0.00 70 1005.3
20260505170021 80 208 12.2 16.5 0.00 0.00 0.00 69 1005.2
20260505165506 80 209 8.7 17.4 0.00 0.00 0.00 71 1005.4
20260505165010 80 234 11.3 17.4 0.00 0.00 0.00 71 1005.3
20260505164530 79 214 9.6 13.9 0.00 0.00 0.00 74 1005.4
20260505164010 79 212 9.6 13.0 0.00 0.00 0.00 73 1005.4
20260505163510 78 221 8.7 14.8 0.00 0.00 0.00 74 1005.4
20260505163027 78 192 9.6 14.8 0.00 0.00 0.00 73 1005.4
20260505162509 78 215 9.6 14.8 0.00 0.00 0.00 74 1005.4
20260505162016 78 167 11.3 16.5 0.00 0.00 0.00 74 1005.3
20260505161528 78 234 11.3 18.2 0.00 0.00 0.00 74 1005.2
20260505161011 78 171 12.2 18.2 0.00 0.00 0.00 72 1005.2
20260505160506 79 231 7.8 12.2 0.00 0.00 0.00 74 1005.1
20260505153029 75 178 7.0 13.0 0.00 0.00 0.00 79 1005.0
20260505152510 75 227 6.1 15.6 0.00 0.00 0.00 79 1005.1
20260505152018 75 243 10.4 17.4 0.00 0.00 0.00 78 1005.0
20260505151521 75 191 7.0 17.4 0.00 0.00 0.00 79 1004.9
20260505151008 75 223 9.6 17.4 0.00 0.00 0.00 77 1004.9
20260505150517 75 210 9.6 15.6 0.00 0.00 0.00 78 1004.9
20260505140519 72 193 12.2 19.1 0.00 0.00 0.00 82 1004.6
20260505125013 69 211 7.8 13.9 0.00 0.00 0.00 86 1004.6
20260505124530 69 209 7.0 13.9 0.00 0.00 0.00 86 1004.6
20260505124011 69 198 7.8 15.6 0.00 0.00 0.00 87 1004.5
20260505123513 69 173 9.6 15.6 0.00 0.00 0.00 87 1004.2
20260505123039 69 204 8.7 14.8 0.00 0.00 0.00 87 1004.2
20260505122511 69 188 8.7 14.8 0.00 0.00 0.00 87 1004.2
20260505122010 69 224 8.7 14.8 0.00 0.00 0.00 87 1004.1
20260505121533 69 192 7.8 13.9 0.00 0.00 0.00 87 1004.0
20260505121010 69 188 7.8 13.9 0.00 0.00 0.00 87 1004.0
20260505120510 68 196 7.8 13.9 0.00 0.00 0.00 88 1004.0
20260505120036 68 202 8.7 13.0 0.00 0.00 0.00 88 1003.9
20260505115512 68 203 7.0 13.0 0.00 0.00 0.00 88 1003.9
20260505115011 68 207 8.7 13.0 0.00 0.00 0.00 88 1004.0
20260505114539 68 175 8.7 12.2 0.00 0.00 0.00 88 1003.9
20260505114010 68 197 7.8 14.8 0.00 0.00 0.00 88 1003.9
20260505113510 68 188 9.6 14.8 0.00 0.00 0.00 88 1003.9
20260505113028 68 160 6.1 10.4 0.00 0.00 0.00 88 1003.8
20260505112510 68 194 5.2 10.4 0.00 0.00 0.00 87 1003.8
20260505112011 68 179 7.8 13.9 0.00 0.00 0.00 88 1003.7
20260505111525 68 187 7.8 12.2 0.00 0.00 0.00 88 1003.7
20260505111011 68 213 7.0 12.2 0.00 0.00 0.00 87 1003.7
20260505110511 68 200 7.8 12.2 0.00 0.00 0.00 87 1003.7
20260505102009 68 189 7.0 13.0 0.00 0.00 0.00 87 1003.6
20260505101520 68 175 7.8 12.2 0.00 0.00 0.00 87 1003.6
20260505101006 68 194 7.8 13.9 0.00 0.00 0.00 86 1003.6
20260505100507 68 155 6.1 13.9 0.00 0.00 0.00 86 1003.6
20260505100028 69 171 8.7 13.0 0.00 0.00 0.00 86 1003.5
20260505095507 68 178 7.0 13.0 0.00 0.00 0.00 86 1003.6
20260505095004 69 208 7.0 14.8 0.00 0.00 0.00 86 1003.6
20260505094513 69 184 8.7 14.8 0.00 0.00 0.00 86 1003.7
20260505094005 69 198 7.0 16.5 0.00 0.00 0.00 86 1003.6
20260505093509 69 186 9.6 16.5 0.00 0.00 0.00 85 1003.5
20260505093015 69 194 6.1 15.6 0.00 0.00 0.00 85 1003.6
20260505092507 69 211 7.0 15.6 0.00 0.00 0.00 85 1003.7
20260505092013 69 166 7.8 14.8 0.00 0.00 0.00 85 1003.7
20260505091510 69 217 7.8 15.6 0.00 0.00 0.00 85 1003.7
20260505091009 69 185 8.7 15.6 0.00 0.00 0.00 84 1003.7
20260505090507 69 189 6.1 16.5 0.00 0.00 0.00 84 1003.8
20260505090037 70 188 7.0 16.5 0.00 0.00 0.00 84 1003.9
20260505085508 70 184 7.0 14.8 0.00 0.00 0.00 83 1004.0
20260505085009 70 160 7.0 15.6 0.00 0.00 0.00 83 1004.0
20260505084524 70 173 7.0 15.6 0.00 0.00 0.00 82 1004.0
20260505084012 70 200 7.0 16.5 0.00 0.00 0.00 82 1004.1
20260505083507 70 193 9.6 18.2 0.00 0.00 0.00 82 1004.1
20260505083013 70 167 9.6 20.0 0.00 0.00 0.00 81 1004.3
20260505082508 70 165 9.6 20.0 0.00 0.00 0.00 81 1004.3
20260505082006 70 196 8.7 14.8 0.00 0.00 0.00 81 1004.3
20260505081534 71 183 7.8 14.8 0.00 0.00 0.00 80 1004.2
20260505081007 71 160 9.6 15.6 0.00 0.00 0.00 80 1004.0
20260505080507 71 181 9.6 15.6 0.00 0.00 0.00 79 1004.0
20260505080042 71 176 7.0 15.6 0.00 0.00 0.00 79 1004.2
20260505075509 71 176 7.0 14.8 0.00 0.00 0.00 78 1004.1
20260505075008 71 197 8.7 17.4 0.00 0.00 0.00 78 1004.0
20260505074514 71 196 9.6 17.4 0.00 0.00 0.00 78 1004.1
20260505074008 71 202 9.6 16.5 0.00 0.00 0.00 78 1004.2
20260505073509 71 185 7.0 18.2 0.00 0.00 0.00 77 1004.3
20260505073022 71 169 10.4 18.2 0.00 0.00 0.00 78 1004.4
20260505072507 71 190 9.6 20.0 0.00 0.00 0.00 77 1004.5
20260505072008 71 179 10.4 20.0 0.00 0.00 0.00 77 1004.5
20260505071518 72 210 12.2 19.1 0.00 0.00 0.00 76 1004.7
20260505071006 72 199 11.3 17.4 0.00 0.00 0.00 76 1004.7
20260505070511 72 210 9.6 18.2 0.00 0.00 0.00 76 1004.9
20260505070026 72 175 9.6 18.2 0.00 0.00 0.00 76 1004.9
20260505065507 72 149 9.6 16.5 0.00 0.00 0.00 76 1005.0
20260505065011 72 167 8.7 16.5 0.00 0.00 0.00 75 1005.1
20260505064523 72 209 8.7 17.4 0.00 0.00 0.00 75 1005.2
20260505064013 72 170 9.6 19.1 0.00 0.00 0.00 75 1005.3
20260505063511 72 180 10.4 19.1 0.00 0.00 0.00 75 1005.3
20260505063023 72 198 7.8 16.5 0.00 0.00 0.00 75 1005.3
20260505062512 72 189 8.7 14.8 0.00 0.00 0.00 75 1005.4
20260505062012 72 196 8.7 15.6 0.00 0.00 0.00 75 1005.4
20260505061520 72 195 9.6 15.6 0.00 0.00 0.00 74 1005.5
20260505061006 72 177 9.6 18.2 0.00 0.00 0.00 74 1005.5
20260505060510 73 192 10.4 16.5 0.00 0.00 0.00 74 1005.5
20260505060024 73 185 10.4 16.5 0.00 0.00 0.00 73 1005.5
20260505055513 73 201 8.7 15.6 0.00 0.00 0.00 73 1005.6
20260505055013 73 204 10.4 16.5 0.00 0.00 0.00 73 1005.6
20260505054526 74 175 10.4 17.4 0.00 0.00 0.00 72 1005.5
20260505054011 74 195 8.7 17.4 0.00 0.00 0.00 72 1005.4
20260505053511 74 203 10.4 19.1 0.00 0.00 0.00 72 1005.3
20260505053026 74 188 10.4 20.0 0.00 0.00 0.00 71 1005.3
20260505052515 74 171 12.2 22.6 0.00 0.00 0.00 71 1005.3
20260505052013 74 191 9.6 22.6 0.00 0.00 0.00 71 1005.2
20260505051525 74 188 7.8 16.5 0.00 0.00 0.00 70 1005.3
20260505051011 74 205 7.0 18.2 0.00 0.00 0.00 70 1005.3